FO-98 (43933 NORAD) Tracking and Keplerian Element Data

This shows tracking and keplerian element data for the satellite.

Feedback or suggestion? Click here.




ElementValue
Catalog43933
NameFO-98
Epoch Orbit2762
Epoch Day199.74631399
Epoch Year2019
RAAN256.3371
Inclination97.2799
Eccentricity0.0017912
Argument of Perigee344.6723
Mean Anonmoly159.1422
Mean Motion15.21659473
Decay Rate4.9E-06
L11 43933U 19003B 19199.74631399 .00000490 00000-0 24604-4 0 9999
L22 43933 97.2799 256.3371 0017912 344.6723 159.1422 15.21659473 27627

Live tracking and technical data element details for FO-98 (NORAD 43933). FO-98 can be tracked NOW for your location showing map with azimuth and elevation plus other details from your city location.

Track the satellite on the map from your city or location and see movement details for azimuth, elevation, latitude, longitude, range, height, and movement on the map or in text.







IsCatalogInMostPopularTable: catalog: 43933, numindb: 159
Update: records affected: 1



GetName: 43933 FO-98

Hit Count: updated at: Sun, 21 Jul 2019 14:43:50 GMT